Location: Eboldshausen
(51.7766°N, 10.0050°E)
Time: 17:21:27
(UTC+00:00)

COSMO-SKYMED 1 - Pass Details

Date: 15 November 2025
Orbit: 579 x 581 km, 97.9° (Epoch: 10 December)

Event Time Altitude Azimuth Distance (km) Brightness Sun altitude
Exits shadow 17:10:23 28° 73° (ENE) 1,110 3.3 -15.4°
Maximum altitude 17:11:13 30° 95° (E) 1,049 3.2 -15.6°
Drops below altitude 10° 17:14:52 10° 158° (SSE) 1,893 4.9 -16.1°
Sets 17:17:12 0° 169° (S) 2,786 5.9 -16.5°
